KC3JUG-3 Weather Reports


time (UTC)temp
C
wind
direction
speed
KPH
gust
KPH
rain 1hr
cm
rain 24hr
cm
rain mn
cm
humidity
%
barometer
mb
20260504110545 8 200 4.8 9.7 0.00 0.00 0.00 58 1015.7
20260504100549 10 194 4.8 8.0 0.00 0.00 0.00 50 1015.6
20260504081553 10 236 1.6 8.0 0.00 0.00 0.00 48 1015.8
20260504081047 10 234 3.2 8.0 0.00 0.00 0.00 48 1015.9
20260504080547 10 223 3.2 8.0 0.00 0.00 0.00 48 1015.9
20260504050547 12 238 4.8 12.9 0.00 0.00 0.00 46 1016.0
20260504050117 11 267 4.8 16.1 0.00 0.00 0.00 45 1016.0
20260504045547 12 251 4.8 16.1 0.00 0.00 0.00 45 1016.0
20260504045047 12 245 6.4 16.1 0.00 0.00 0.00 45 1016.1
20260504044545 11 238 4.8 12.9 0.00 0.00 0.00 45 1016.0
20260504044048 11 251 6.4 12.9 0.00 0.00 0.00 46 1016.0
20260504043548 11 232 4.8 12.9 0.00 0.00 0.00 46 1015.9
20260504043047 11 244 4.8 12.9 0.00 0.00 0.00 46 1015.9
20260504042547 11 250 4.8 12.9 0.00 0.00 0.00 46 1015.8
20260504042047 11 249 4.8 12.9 0.00 0.00 0.00 46 1015.8
20260504041548 11 250 4.8 12.9 0.00 0.00 0.00 46 1015.8
20260504041047 11 242 4.8 11.3 0.00 0.00 0.00 46 1015.7
20260504040547 11 243 4.8 12.9 0.00 0.00 0.00 46 1015.7
20260504035547 11 244 3.2 12.9 0.00 0.00 0.00 47 1015.7
20260504035050 11 256 4.8 14.5 0.00 0.00 0.00 47 1015.7
20260504034552 11 253 4.8 14.5 0.00 0.00 0.00 46 1015.7
20260504034047 11 252 4.8 14.5 0.00 0.00 0.00 46 1015.7
20260504033548 11 234 3.2 11.3 0.00 0.00 0.00 46 1015.7
20260504033057 11 255 3.2 9.7 0.00 0.00 0.00 46 1015.6
20260504032548 11 253 3.2 9.7 0.00 0.00 0.00 47 1015.6
20260504032048 11 252 3.2 12.9 0.00 0.00 0.00 46 1015.6
20260504031619 11 254 4.8 12.9 0.00 0.00 0.00 46 1015.6
20260504031046 11 255 3.2 9.7 0.00 0.00 0.00 46 1015.6
20260504030547 11 239 3.2 8.0 0.00 0.00 0.00 47 1015.4
20260504030053 11 248 3.2 11.3 0.00 0.00 0.00 47 1015.5
20260504025547 11 258 3.2 11.3 0.00 0.00 0.00 46 1015.4
20260504025049 11 262 4.8 11.3 0.00 0.00 0.00 46 1015.4
20260504024553 11 246 3.2 8.0 0.00 0.00 0.00 47 1015.4
20260504024048 11 240 3.2 11.3 0.00 0.00 0.00 47 1015.4
20260504023546 11 250 3.2 11.3 0.00 0.00 0.00 46 1015.5
20260504023049 11 250 3.2 12.9 0.00 0.00 0.00 46 1015.6
20260504022547 11 250 3.2 12.9 0.00 0.00 0.00 46 1015.6
20260504022047 11 251 3.2 12.9 0.00 0.00 0.00 47 1015.7
20260504021602 11 249 3.2 12.9 0.00 0.00 0.00 47 1015.5
20260504021047 11 265 3.2 12.9 0.00 0.00 0.00 48 1015.4
20260504020547 11 248 4.8 12.9 0.00 0.00 0.00 48 1015.6
20260504020052 11 250 3.2 8.0 0.00 0.00 0.00 49 1015.6
20260504015547 10 258 3.2 8.0 0.00 0.00 0.00 51 1015.6
20260504015047 10 252 1.6 6.4 0.00 0.00 0.00 53 1015.5
20260504014553 10 270 0.0 4.8 0.00 0.00 0.00 55 1015.5
20260504014046 10 0 0.0 3.2 0.00 0.00 0.00 55 1015.4
20260504013546 10 0 0.0 4.8 0.00 0.00 0.00 55 1015.3
20260504013051 10 0 0.0 6.4 0.00 0.00 0.00 53 1015.2
20260504012549 10 254 3.2 6.4 0.00 0.00 0.00 50 1015.3
20260504012048 10 248 3.2 6.4 0.00 0.00 0.00 52 1015.3
20260504011553 10 246 1.6 6.4 0.00 0.00 0.00 54 1015.2
20260504011048 10 0 0.0 1.6 0.00 0.00 0.00 55 1015.2
20260504010547 10 0 0.0 4.8 0.00 0.00 0.00 55 1015.2
20260504010057 10 0 0.0 4.8 0.00 0.00 0.00 53 1015.0
20260504005547 10 0 0.0 6.4 0.00 0.00 0.00 54 1015.2
20260504005047 10 0 0.0 6.4 0.00 0.00 0.00 53 1015.1
20260504004555 10 0 1.6 8.0 0.00 0.00 0.00 52 1015.1
20260504004047 10 236 0.0 8.0 0.00 0.00 0.00 52 1015.1
20260504003547 11 236 0.0 8.0 0.00 0.00 0.00 54 1015.0
20260504003047 11 0 0.0 4.8 0.00 0.00 0.00 53 1014.9
20260504002547 11 246 0.0 4.8 0.00 0.00 0.00 52 1014.9
20260504002047 11 246 0.0 4.8 0.00 0.00 0.00 51 1014.8
20260504001608 11 246 1.6 6.4 0.00 0.00 0.00 48 1014.6
20260504001048 12 246 1.6 6.4 0.00 0.00 0.00 48 1014.6
20260504000548 12 246 1.6 6.4 0.00 0.00 0.00 47 1014.5
20260504000058 12 234 1.6 6.4 0.00 0.00 0.00 46 1014.4
20260503235548 12 257 3.2 6.4 0.00 0.00 0.00 45 1014.5
20260503235050 12 258 1.6 4.8 0.00 0.00 0.00 45 1014.3
20260503234547 12 258 1.6 9.7 0.00 0.00 0.00 45 1014.3
20260503234047 12 258 3.2 9.7 0.00 0.00 0.00 45 1014.3
20260503233547 13 256 3.2 9.7 0.00 0.00 0.00 44 1014.2
20260503233050 13 247 3.2 11.3 0.00 0.00 0.00 43 1014.2
20260503232548 13 269 4.8 11.3 0.00 0.00 0.00 42 1014.2
20260503232048 13 274 4.8 11.3 0.00 0.00 0.00 43 1014.3
20260503231558 13 266 4.8 11.3 0.00 0.00 0.00 42 1014.2
20260503231048 13 239 4.8 12.9 0.00 0.00 0.00 42 1014.3
20260503230550 13 268 6.4 12.9 0.00 0.00 0.00 42 1014.3
20260503230059 13 250 6.4 14.5 0.00 0.00 0.00 41 1014.2
20260503225546 13 259 6.4 17.7 0.00 0.00 0.00 41 1014.2
20260503225052 13 258 8.0 17.7 0.00 0.00 0.00 41 1014.0
20260503224556 13 265 6.4 14.5 0.00 0.00 0.00 40 1014.0
20260503224048 13 0 8.0 14.5 0.00 0.00 0.00 40 1014.1
20260503223546 13 266 6.4 12.9 0.00 0.00 0.00 40 1014.0
20260503223051 13 266 4.8 12.9 0.00 0.00 0.00 41 1014.0
20260503222546 13 227 4.8 14.5 0.00 0.00 0.00 41 1014.1
20260503222047 13 277 6.4 14.5 0.00 0.00 0.00 41 1014.1
20260503221558 13 271 8.0 14.5 0.00 0.00 0.00 40 1014.0
20260503221049 13 259 4.8 14.5 0.00 0.00 0.00 41 1014.0
20260503220547 13 265 8.0 16.1 0.00 0.00 0.00 40 1014.0
20260503220052 13 257 4.8 16.1 0.00 0.00 0.00 42 1014.1
20260503215546 13 280 8.0 16.1 0.00 0.00 0.00 40 1014.1
20260503215048 13 234 8.0 14.5 0.00 0.00 0.00 40 1014.0
20260503214556 13 249 8.0 16.1 0.00 0.00 0.00 41 1014.0
20260503214050 13 245 4.8 16.1 0.00 0.00 0.00 40 1014.1
20260503213547 13 265 8.0 16.1 0.00 0.00 0.00 39 1014.1
20260503213123 13 238 8.0 16.1 0.00 0.00 0.00 41 1014.1
20260503212547 13 272 6.4 16.1 0.00 0.00 0.00 40 1014.1
20260503212050 13 236 6.4 16.1 0.00 0.00 0.00 41 1014.0
20260503211614 13 250 8.0 16.1 0.00 0.00 0.00 40 1014.0
20260503211049 13 257 8.0 16.1 0.00 0.00 0.00 41 1014.0
20260503210547 13 240 8.0 14.5 0.00 0.00 0.00 42 1014.0
20260503210047 13 259 6.4 14.5 0.00 0.00 0.00 39 1014.0
20260503205547 13 270 6.4 11.3 0.00 0.00 0.00 40 1014.0
20260503205047 13 235 4.8 16.1 0.00 0.00 0.00 41 1014.0
20260503204602 13 271 8.0 16.1 0.00 0.00 0.00 42 1014.1
20260503204046 13 269 8.0 12.9 0.00 0.00 0.00 40 1014.1
20260503203546 13 257 4.8 12.9 0.00 0.00 0.00 41 1014.1
20260503203054 13 276 6.4 12.9 0.00 0.00 0.00 41 1014.2
20260503202547 13 269 6.4 17.7 0.00 0.00 0.00 41 1014.2
20260503202051 13 254 4.8 17.7 0.00 0.00 0.00 41 1014.3
20260503201549 13 264 8.0 14.5 0.00 0.00 0.00 40 1014.1
20260503201046 12 234 3.2 9.7 0.00 0.00 0.00 43 1014.2
20260503200546 12 269 1.6 20.9 0.00 0.00 0.00 43 1014.3
20260503200052 12 257 8.0 20.9 0.00 0.00 0.00 43 1014.4
20260503195548 13 275 6.4 19.3 0.00 0.00 0.00 40 1014.4
20260503195046 13 267 9.7 19.3 0.00 0.00 0.00 39 1014.5
20260503194553 13 282 8.0 16.1 0.00 0.00 0.00 42 1014.5
20260503194047 13 254 3.2 16.1 0.00 0.00 0.00 43 1014.6
20260503193547 13 268 6.4 16.1 0.00 0.00 0.00 42 1014.6
20260503193046 13 264 9.7 16.1 0.00 0.00 0.00 42 1014.6
20260503192546 12 252 8.0 16.1 0.00 0.00 0.00 42 1014.6
20260503192047 12 267 8.0 14.5 0.00 0.00 0.00 42 1014.8
20260503191602 12 264 3.2 12.9 0.00 0.00 0.00 44 1014.7
20260503191047 12 251 3.2 11.3 0.00 0.00 0.00 42 1014.9
20260503190547 12 125 3.2 19.3 0.00 0.00 0.00 44 1014.9
20260503190046 12 270 11.3 19.3 0.00 0.00 0.00 43 1014.9
20260503185547 12 271 9.7 17.7 0.00 0.00 0.00 44 1014.8
20260503185047 12 265 8.0 16.1 0.00 0.00 0.00 46 1014.9
20260503184607 12 257 6.4 16.1 0.00 0.00 0.00 44 1015.1
20260503184047 12 263 9.7 20.9 0.00 0.00 0.00 45 1015.1
20260503183547 12 269 4.8 20.9 0.00 0.00 0.00 44 1015.1
20260503183052 12 292 4.8 20.9 0.00 0.00 0.00 43 1015.3
20260503182547 12 261 9.7 16.1 0.00 0.00 0.00 41 1015.4
20260503182047 12 247 8.0 16.1 0.00 0.00 0.00 43 1015.2
20260503181554 12 272 6.4 14.5 0.00 0.00 0.00 45 1015.3
20260503181047 12 254 4.8 14.5 0.00 0.00 0.00 43 1015.3
20260503180546 12 294 8.0 16.1 0.00 0.00 0.00 43 1015.4
20260503180053 12 314 6.4 16.1 0.00 0.00 0.00 48 1015.4
20260503175547 12 283 8.0 16.1 0.00 0.00 0.00 47 1015.5
20260503175047 12 190 4.8 14.5 0.00 0.00 0.00 45 1015.4
20260503174610 12 275 4.8 14.5 0.00 0.00 0.00 46 1015.4
20260503174051 11 262 8.0 16.1 0.00 0.00 0.00 44 1015.4
20260503173547 11 269 9.7 16.1 0.00 0.00 0.00 45 1015.4
20260503173105 11 286 4.8 16.1 0.00 0.00 0.00 46 1015.4
20260503172546 11 330 8.0 16.1 0.00 0.00 0.00 46 1015.5
20260503172047 11 261 4.8 16.1 0.00 0.00 0.00 45 1015.6
20260503171549 11 233 8.0 17.7 0.00 0.00 0.00 45 1015.4
20260503171047 11 277 8.0 27.4 0.00 0.00 0.00 45 1015.5
20260503170547 10 272 9.7 27.4 0.00 0.00 0.00 44 1015.6
20260503150546 7 296 4.8 12.9 0.00 0.00 0.00 54 1016.1
20260503131046 6 266 8.0 14.5 0.00 0.00 0.00 64 1016.1
20260503130545 6 269 4.8 14.5 0.00 0.00 0.00 64 1016.0